Time,TemperatureF,DewpointF,PressureIn,WindDirection,WindDirectionDegrees,WindSpeedMPH,WindSpeedGustMPH,Humidity,HourlyPrecipIn,Conditions,Clouds,dailyrainin,SoftwareType,DateUTC
2014-08-22 00:10:00,53.7,44.0,30.02,NW,305,0.0,0.0,71,0.00,,,0.00,weatherlink.com 1.10,2014-08-22 07:10:00,
2014-08-22 00:25:00,53.3,45.0,30.02,NW,305,0.0,0.0,73,0.00,,,0.00,weatherlink.com 1.10,2014-08-22 07:25:00,
2014-08-22 00:40:00,52.9,45.0,30.02,NW,305,0.0,0.0,74,0.00,,,0.00,weatherlink.com 1.10,2014-08-22 07:40:00,
2014-08-22 00:55:00,52.4,45.0,30.02,NW,305,0.0,0.0,75,0.00,,,0.00,weatherlink.com 1.10,2014-08-22 07:55:00,
2014-08-22 01:10:00,52.1,45.0,30.02,NW,305,0.0,0.0,77,0.00,,,0.00,weatherlink.com 1.10,2014-08-22 08:10:00,
2014-08-22 01:25:00,51.7,45.0,30.03,NW,305,0.0,0.0,77,0.00,,,0.00,weatherlink.com 1.10,2014-08-22 08:25:00,
2014-08-22 01:40:00,51.5,45.0,30.02,NW,305,0.0,0.0,78,0.00,,,0.00,weatherlink.com 1.10,2014-08-22 08:40:00,
2014-08-22 01:55:00,51.4,45.0,30.02,NW,305,0.0,0.0,80,0.00,,,0.00,weatherlink.com 1.10,2014-08-22 08:55:00,
2014-08-22 02:10:00,51.2,45.0,30.02,NW,305,0.0,0.0,80,0.00,,,0.00,weatherlink.com 1.10,2014-08-22 09:10:00,
2014-08-22 02:25:00,50.8,46.0,30.02,NW,305,0.0,0.0,82,0.00,,,0.00,weatherlink.com 1.10,2014-08-22 09:25:00,
2014-08-22 02:40:00,50.5,46.0,30.02,NW,305,0.0,0.0,84,0.00,,,0.00,weatherlink.com 1.10,2014-08-22 09:40:00,
2014-08-22 02:55:00,50.3,45.0,30.02,NW,305,0.0,0.0,83,0.00,,,0.00,weatherlink.com 1.10,2014-08-22 09:55:00,
2014-08-22 03:10:00,50.2,46.0,30.02,NW,305,0.0,0.0,84,0.00,,,0.00,weatherlink.com 1.10,2014-08-22 10:10:00,
2014-08-22 03:25:00,50.3,46.0,30.02,NW,305,0.0,0.0,84,0.00,,,0.00,weatherlink.com 1.10,2014-08-22 10:25:00,
2014-08-22 03:40:00,50.5,46.0,30.02,NW,305,0.0,0.0,84,0.00,,,0.00,weatherlink.com 1.10,2014-08-22 10:40:00,
2014-08-22 03:55:00,50.4,46.0,30.02,NW,305,0.0,0.0,84,0.00,,,0.00,weatherlink.com 1.10,2014-08-22 10:55:00,
2014-08-22 04:10:00,49.9,45.0,30.01,NW,305,0.0,0.0,84,0.00,,,0.00,weatherlink.com 1.10,2014-08-22 11:10:00,
2014-08-22 04:25:00,49.5,46.0,30.01,NW,305,0.0,0.0,86,0.00,,,0.00,weatherlink.com 1.10,2014-08-22 11:25:00,
2014-08-22 04:40:00,49.6,46.0,30.01,NW,305,0.0,0.0,86,0.00,,,0.00,weatherlink.com 1.10,2014-08-22 11:40:00,
2014-08-22 04:55:00,49.5,46.0,30.01,NW,305,0.0,0.0,86,0.00,,,0.00,weatherlink.com 1.10,2014-08-22 11:55:00,
2014-08-22 05:10:00,49.4,46.0,30.00,NW,305,0.0,0.0,87,0.00,,,0.00,weatherlink.com 1.10,2014-08-22 12:10:00,
2014-08-22 05:25:00,49.2,46.0,30.00,NW,305,0.0,0.0,87,0.00,,,0.00,weatherlink.com 1.10,2014-08-22 12:25:00,
2014-08-22 05:40:00,49.0,46.0,30.00,NW,305,0.0,0.0,88,0.00,,,0.00,weatherlink.com 1.10,2014-08-22 12:40:00,
2014-08-22 05:55:00,48.7,45.0,30.01,NW,305,0.0,0.0,88,0.00,,,0.00,weatherlink.com 1.10,2014-08-22 12:55:00,
2014-08-22 06:11:00,48.5,45.0,30.01,NW,305,0.0,0.0,88,0.00,,,0.00,weatherlink.com 1.10,2014-08-22 13:11:00,
2014-08-22 06:26:00,48.7,46.0,30.01,NW,305,0.0,0.0,90,0.00,,,0.00,weatherlink.com 1.10,2014-08-22 13:26:00,
2014-08-22 06:41:00,49.4,46.0,30.01,NW,305,0.0,0.0,89,0.00,,,0.00,weatherlink.com 1.10,2014-08-22 13:41:00,
2014-08-22 06:56:00,49.8,46.0,30.01,NW,305,0.0,0.0,88,0.00,,,0.00,weatherlink.com 1.10,2014-08-22 13:56:00,
2014-08-22 07:11:00,50.4,47.0,30.01,NW,305,0.0,0.0,89,0.00,,,0.00,weatherlink.com 1.10,2014-08-22 14:11:00,
2014-08-22 07:26:00,51.2,48.0,30.01,NW,305,0.0,0.0,88,0.00,,,0.00,weatherlink.com 1.10,2014-08-22 14:26:00,
2014-08-22 07:41:00,52.3,48.0,30.02,NW,305,0.0,0.0,86,0.00,,,0.00,weatherlink.com 1.10,2014-08-22 14:41:00,
2014-08-22 07:56:00,53.3,49.0,30.02,NW,305,0.0,0.0,85,0.00,,,0.00,weatherlink.com 1.10,2014-08-22 14:56:00,
2014-08-22 08:11:00,53.6,49.0,30.02,NW,305,0.0,0.0,84,0.00,,,0.00,weatherlink.com 1.10,2014-08-22 15:11:00,
2014-08-22 08:26:00,54.3,49.0,30.02,NW,305,0.0,0.0,83,0.00,,,0.00,weatherlink.com 1.10,2014-08-22 15:26:00,
2014-08-22 08:41:00,56.2,50.0,30.01,SSW,205,0.0,1.0,81,0.00,,,0.00,weatherlink.com 1.10,2014-08-22 15:41:00,
2014-08-22 08:56:00,57.9,51.0,30.00,SSE,148,0.0,2.0,77,0.00,,,0.00,weatherlink.com 1.10,2014-08-22 15:56:00,
2014-08-22 09:11:00,58.3,51.0,30.00,SSE,148,0.0,0.0,77,0.00,,,0.00,weatherlink.com 1.10,2014-08-22 16:11:00,
2014-08-22 09:26:00,58.8,52.0,29.99,SSE,148,0.0,1.0,78,0.00,,,0.00,weatherlink.com 1.10,2014-08-22 16:26:00,
2014-08-22 09:41:00,60.0,53.0,29.99,SSE,148,0.0,1.0,78,0.00,,,0.00,weatherlink.com 1.10,2014-08-22 16:41:00,
2014-08-22 09:56:00,62.6,55.0,29.99,NE,40,1.0,3.0,75,0.00,,,0.00,weatherlink.com 1.10,2014-08-22 16:56:00,
2014-08-22 10:11:00,66.5,56.0,29.99,NE,44,2.0,4.0,70,0.00,,,0.00,weatherlink.com 1.10,2014-08-22 17:11:00,
2014-08-22 10:26:00,69.5,58.0,29.99,SE,142,1.0,5.0,66,0.00,,,0.00,weatherlink.com 1.10,2014-08-22 17:26:00,
2014-08-22 10:41:00,71.4,59.0,29.98,ENE,59,2.0,5.0,65,0.00,,,0.00,weatherlink.com 1.10,2014-08-22 17:41:00,
2014-08-22 10:56:00,73.0,60.0,29.98,NW,323,0.0,5.0,64,0.00,,,0.00,weatherlink.com 1.10,2014-08-22 17:56:00,
2014-08-22 11:11:00,74.8,59.0,29.98,West,273,1.0,5.0,58,0.00,,,0.00,weatherlink.com 1.10,2014-08-22 18:11:00,
2014-08-22 11:26:00,75.3,58.0,29.97,East,92,1.0,5.0,55,0.00,,,0.00,weatherlink.com 1.10,2014-08-22 18:26:00,
2014-08-22 11:41:00,76.6,59.0,29.97,East,88,1.0,5.0,54,0.00,,,0.00,weatherlink.com 1.10,2014-08-22 18:41:00,
2014-08-22 11:57:00,76.8,57.0,29.96,NNE,32,0.0,4.0,51,0.00,,,0.00,weatherlink.com 1.10,2014-08-22 18:57:00,
2014-08-22 12:12:00,78.4,58.0,29.96,West,265,1.0,4.0,50,0.00,,,0.00,weatherlink.com 1.10,2014-08-22 19:12:00,
2014-08-22 12:27:00,77.9,58.0,29.95,SW,225,4.0,9.0,51,0.00,,,0.00,weatherlink.com 1.10,2014-08-22 19:27:00,
2014-08-22 12:42:00,78.2,59.0,29.95,WSW,238,0.0,8.0,52,0.00,,,0.00,weatherlink.com 1.10,2014-08-22 19:42:00,
2014-08-22 12:57:00,77.8,60.0,29.95,WSW,246,3.0,10.0,55,0.00,,,0.00,weatherlink.com 1.10,2014-08-22 19:57:00,
2014-08-22 13:12:00,77.9,61.0,29.95,West,279,0.0,8.0,56,0.00,,,0.00,weatherlink.com 1.10,2014-08-22 20:12:00,
2014-08-22 13:27:00,77.6,60.0,29.95,SSW,200,1.0,8.0,55,0.00,,,0.00,weatherlink.com 1.10,2014-08-22 20:27:00,
2014-08-22 13:42:00,77.8,60.0,29.95,WSW,249,7.0,9.0,55,0.00,,,0.00,weatherlink.com 1.10,2014-08-22 20:42:00,
2014-08-22 13:57:00,77.1,60.0,29.95,WSW,253,4.0,7.0,56,0.00,,,0.00,weatherlink.com 1.10,2014-08-22 20:57:00,
2014-08-22 14:12:00,77.4,59.0,29.94,NE,40,2.0,9.0,53,0.00,,,0.00,weatherlink.com 1.10,2014-08-22 21:12:00,
2014-08-22 14:27:00,78.3,60.0,29.94,SSE,165,4.0,8.0,53,0.00,,,0.00,weatherlink.com 1.10,2014-08-22 21:27:00,
2014-08-22 14:42:00,79.5,58.0,29.94,East,84,4.0,9.0,48,0.00,,,0.00,weatherlink.com 1.10,2014-08-22 21:42:00,
2014-08-22 14:57:00,81.0,58.0,29.94,NE,38,7.0,8.0,45,0.00,,,0.00,weatherlink.com 1.10,2014-08-22 21:57:00,
2014-08-22 15:12:00,80.2,58.0,29.94,ENE,65,0.0,11.0,47,0.00,,,0.00,weatherlink.com 1.10,2014-08-22 22:12:00,
2014-08-22 15:27:00,79.9,58.0,29.94,NE,45,7.0,10.0,48,0.00,,,0.00,weatherlink.com 1.10,2014-08-22 22:27:00,
2014-08-22 15:42:00,79.3,57.0,29.94,NE,36,7.0,10.0,47,0.00,,,0.00,weatherlink.com 1.10,2014-08-22 22:42:00,
2014-08-22 15:57:00,79.2,57.0,29.94,NNW,347,2.0,10.0,47,0.00,,,0.00,weatherlink.com 1.10,2014-08-22 22:57:00,
2014-08-22 16:12:00,78.7,57.0,29.94,NE,43,2.0,10.0,47,0.00,,,0.00,weatherlink.com 1.10,2014-08-22 23:12:00,
2014-08-22 16:27:00,78.5,57.0,29.94,NNW,336,1.0,10.0,48,0.00,,,0.00,weatherlink.com 1.10,2014-08-22 23:27:00,
2014-08-22 16:42:00,78.9,57.0,29.94,NE,53,1.0,10.0,48,0.00,,,0.00,weatherlink.com 1.10,2014-08-22 23:42:00,
2014-08-22 16:57:00,78.5,58.0,29.94,NNW,331,0.0,7.0,49,0.00,,,0.00,weatherlink.com 1.10,2014-08-22 23:57:00,
2014-08-22 17:12:00,79.0,58.0,29.93,WSW,251,0.0,6.0,48,0.00,,,0.00,weatherlink.com 1.10,2014-08-23 00:12:00,
2014-08-22 17:27:00,79.1,57.0,29.93,WNW,287,2.0,6.0,47,0.00,,,0.00,weatherlink.com 1.10,2014-08-23 00:27:00,
2014-08-22 17:42:00,78.4,57.0,29.93,WSW,253,1.0,6.0,48,0.00,,,0.00,weatherlink.com 1.10,2014-08-23 00:42:00,